阿卡迪亚3号

导读 | 星芒AI

CAPELLA-13(ACADIA)是由美国Capella Space公司发射的合成孔径雷达(SAR)卫星,具备高分辨率雷达成像能力,可在任何天气和光照条件下提供清晰的地球观测数据。该卫星于2022年发射,是Capella Earth Imaging星座的一部分,旨在支持防灾减灾、环境监测、国防安全等应用。ACADIA卫星采用先进的X波段SAR技术,提供亚米级分辨率,增强了对地观测的实时性和准确性。

基本信息
目录编号:
60419
目录名称:
CAPELLA-13 (ACADIA)
国际标识:
2024-142A
轨道中心:
EARTH
卫星名称:
阿卡迪亚3号
卫星全名:
阿卡迪亚3号
卫星状态:
在轨 (已飞行491 天)
发射日期:
2024-08-11 UTC
国别 :
美国 (US)
星等 :
--
轨道信息
数据来源 国际轨道数据 AOE轨道数据
星历时间 2025-12-15T03:33:43+0800
1天前
查看轨道信息
2025-12-14T13:00:00+0800
1天前
查看轨道信息
半长轴 6983.422km 6983.444km
偏心率 0.0001407 0.0001521
轨道倾角 53.005° 53.004°
近地点辐角 85.631° 86.366°
升交点赤经 142.346° 144.995°
平近点角 274.483° 262.497°
近地点 604.304km 604.246km
远地点 606.27km 606.372km
周期 96.797分钟 96.797分钟
每日圈数 14.876487 14.876418
详细信息
运营商:
火箭实验室
运营商所在国:
美国
制造商(研发单位):
火箭实验室
制造商所在国:
美国
使用方式:
暂无
卫星简介
卡佩拉13(Capella 13)或 Capella Acadia 3 是美国公司 Capella Space 所发射的一颗地球观测卫星。Capella Space 专注于使用**合成孔径雷达(SAR)**技术进行高分辨率的地球成像,该技术具有全天候、全天时观测能力,不受云层和光照条件的影响。
2D轨道图
3D轨道图
轨道高度分析图
轨道倾角分析图
轨道综合分析图
查看轨道综合分析图